Regional Weather Roundup
Issued by NWS

Home | Current Version | Previous Version | Text Only | Print | Product List | Glossary Off
Versions: 1 2 3 4 5 6 7 8 9 10 11 12 13 14 15 16 17 18 19 20 21 22 23 24 25 26 27 28 29 30 31 32 33 34 35 36 37 38 39 40 41 42 43 44 45 46 47 48 49 50

000
ASUS43 KTOP 220659
RWRKS

WEATHER ROUNDUP FOR KANSAS
NATIONAL WEATHER SERVICE GOODLAND KS
100 AM CST MON DEC 22 2014

NOTE:  "FAIR" INDICATES FEW OR NO CLOUDS BELOW 12,000 FEET WITH NO
SIGNIFICANT WEATHER AND/OR OBSTRUCTIONS TO VISIBILITY.

KSZ001>006-013>018-027>032-041>047-220800-
NORTHWEST KANSAS

CITY           SKY/WX    TMP DP  RH WIND       PRES   REMARKS
GOODLAND       PTCLDY    39  33  79 NW20      29.58R WCI  29
HAYS           CLOUDY    43  37  81 S14       29.54F
HILL CITY      MOCLDY    39  35  86 SW6       29.52F
RUSSELL        CLOUDY    44  43  96 S17       29.54S FOG
$$

KSZ061>065-074>080-084>089-220800-
SOUTHWEST KANSAS

CITY           SKY/WX    TMP DP  RH WIND       PRES   REMARKS
DODGE CITY     CLOUDY    42  40  92 SW12      29.56S
ELKHART          N/A    N/A N/A N/A MISG        N/A
GARDEN CITY    MOCLDY    32  32 100 W6        29.56F
GREAT BEND     CLOUDY    45  39  81 S14       29.57F
LIBERAL        PTCLDY    32  25  74 NW6       29.57F
$$

KSZ066>073-081>083-090>101-220800-
SOUTHEAST KANSAS

CITY           SKY/WX    TMP DP  RH WIND       PRES   REMARKS
CHANUTE        CLOUDY    44  42  93 SE13      29.69F
COFFEYVILLE    CLOUDY    44  43  96 SE10      29.69F FOG
HUTCHINSON     CLOUDY    44  42  93 SE16      29.59F FOG
MEDICINE LODGE   N/A     44  44 100 SE8G17    29.57F
NEWTON         CLOUDY    43  37  81 S14       29.63F
PARSONS        CLOUDY    44  43  96 SE8       29.70F FOG
WICHITA INTL   LGT RAIN  45  42  89 S12       29.61F FOG
WICHITA JABRA  CLOUDY    43  42  97 S12       29.62F FOG
WICHITA MCCONL MIX PCPN  43  43 100 SE13      29.62F FOG
WINFIELD       CLOUDY    44  44 100 SE12      29.64F FOG
$$

KSZ007>012-019>026-033>040-048>060-102>105-220800-
NORTHEAST KANSAS

CITY           SKY/WX    TMP DP  RH WIND       PRES   REMARKS
CONCORDIA      CLOUDY    43  43 100 S15       29.57F FOG
EMPORIA        CLOUDY    42  41  96 SE13      29.66F FOG
LAWRENCE       CLOUDY    43  39  86 SE12      29.70F
MANHATTAN      CLOUDY    44  42  93 S12       29.63F FOG
OLATHE IND     CLOUDY    42  38  85 SE12      29.71F
OLATHE EXE     CLOUDY    42  38  85 SE12      29.70F
SALINA         CLOUDY    45  43  93 S16       29.60F FOG
TOPEKA BILLARD CLOUDY    45  41  86 S12       29.68F
TOPEKA FORBES  CLOUDY    45  40  82 S14       29.67F
$$



USA.gov is the U.S. government's official web portal to all federal, state and local government web resources and services.